Location: Klein M�hlingen
(51.9472°N, 11.7453°E)
Time: 13:55:13
(UTC+00:00)

SeaSat 1 - Pass Details

Date: 09 April 2020
Orbit: 745 x 746 km, 108.0° (Epoch: 24 May)

Event Time Altitude Azimuth Distance (km) Brightness Sun altitude
Rises 19:48:43 0° 27° (NNE) 3,203 5.8 -15.7°
Reaches altitude 10° 19:51:09 10° 18° (NNE) 2,275 5.2 -16.0°
Maximum altitude 19:55:32 33° 316° (NW) 1,249 4.3 -16.6°
Drops below altitude 10° 19:59:54 10° 253° (WSW) 2,265 5.4 -17.1°
Sets 20:02:20 0° 244° (WSW) 3,186 6.0 -17.4°
